{"data":{"norad_id":67403,"epoch":"2026-05-24T22:57:39.742272Z","epoch_age_seconds":72019,"freshness":"FRESH","line1":"1 67403U 25315C   26144.95670998 -.00000076  00000+0  00000+0 0  9998","line2":"2 67403   3.3399  95.6590 0007572 351.4949 213.7257  1.00273628  1455","mean_motion":1.00273628,"eccentricity":0.0007572,"inclination_deg":3.3399,"raan_deg":95.659,"arg_perigee_deg":351.4949,"mean_anomaly_deg":213.7257,"bstar":0,"rev_number":145,"period_min":1436.0705089877,"perigee_km":35754.151565469,"apogee_km":35818.005053133,"semimajor_km":42164.215309301,"source":"CELESTRAK","updated_at":"2026-05-25T13:38:14.189726Z"}}